Race Results for
High Desert Screamer
Gallup, NM
(Event Information)
View By:
Cross Country on 09/29/2007

Note: Ranking points are NOT upgrade points. An explanation of ranking points can be found here.


Men - SP - Junior - 1-18

 Place Points NameCity, StateTime USAC #BibTeam
1 Brian O'Donoghue   1:48:10.1  350 
2 Joshua Torres   Belen, NM1:53:24.3 263161  360 
3 Daniel Griffith   Las Cruces, NM1:53:37.9 268588  351 
4 Sean Wallace   2:24:44.0  424 

Men - SP - Senior - 19-29

 Place Points NameCity, StateTime USAC #BibTeam
1 Paul Trotman   1:36:48.2  382 
2 Abiel Lopez   1:38:47.7  391 
3 Jeremy Benjamin Bradley   1:38:54.0  394 
4 Nick Kuhn   1:40:59.4  393 
5 Mac Whitney   1:46:51.0  323 
6 Jacob Van Vleck   1:51:46.1  422 
7 Lloyd Russell Payne   2:03:36.7  358 

Men - SP - Master - 30-39

 Place Points NameCity, StateTime USAC #BibTeam
1 Jason Gedmin   1:32:29.6  373 
2 Aaron Huckstep   1:36:32.8  446 
3 Peter Devries   1:38:31.4  304 
4 Brian Long   1:39:37.5  428 
5 Craig Baumann   1:43:10.4  420 
6 Paul Dewitt   1:44:08.7  371 
7 Frank Graf   1:46:52.0  338 
8 Jesse Crane   1:47:01.5  377 
9 Chris Dondlinger   1:50:27.5  397 
10 Brian Culligan   1:50:46.1  302 
11 Dana Crujido   1:51:10.2  305 
12 John Zarling   Los Alamos, NM1:51:53.1 216237  426 
13 Brian Hroch   1:53:30.3  411 
14 Mark Smith   1:53:36.8  406 
15 Phillip Radliff   1:55:48.4  343 
16 Daniel Osborn   2:08:07.7  313 
17 Brian Goldsberry   2:08:07.7  314 
18 Julius Charlie   2:09:01.0  450 
19 Gerald Jacquez   2:23:00.1  430 
20 Sean M Wilson   2:28:50.6  308 
21 Jay Morgan   2:51:18.3  452 
22 Donnie Shepard   2:53:13.6  370 

Men - SP - 40-49

 Place Points NameCity, StateTime USAC #BibTeam
14 Delwyn Werito   2:00:46.0  346 

Men - SP - Master - 40-49

 Place Points NameCity, StateTime USAC #BibTeam
1 Matt Willis   1:34:09.5  445 
2 Lars W Hansen   1:38:52.1  344 
3 Jack Hawley   1:41:01.4  413 
4 Michael Archibeck   Albuquerque, NM1:41:35.9 257569  301 
5 John G. Hammond   1:44:10.4  405 
6 Richard Rose   1:45:14.5  412 
7 Pat Caldwell   1:45:15.7  392 
8 Tim Nelson   1:45:50.5  322 
9 Richard Gleason   1:49:05.2  414 
10 Steve Robinson   1:53:54.5  423 
11 Richard Rasmussen   Albuquerque, NM1:55:53.8 82967  442 
12 David Halliburton   Mesilla Park, NM1:56:01.4 245084  334 
13 Dal Haynes   Albuquerque, NM1:56:10.7 243864  315 
15 Hank Stokes   2:08:56.3  400 
16 Lewis Toledo   2:11:46.9  435 
17 Jesus Torres   2:14:24.0  359 
18 David Daves   2:35:15.4  398 

Men - SP - Master - 50-99

 Place Points NameCity, StateTime USAC #BibTeam
1 David Hughes   1:43:19.3  399 
2 Ken Gauthier   Pittsfield Ma1:44:06.5 221507  348 
3 David Vining   1:46:08.9  375 
4 Mark Johnson   Dixon, NM1:48:47.9 263184  340 
5 Tom Buder   1:51:04.8  342 
6 Robert Cipoletti   2:02:21.4  407 
7 George Guerdrum   Albuquerque, NM2:02:37.8 267827  417 
8 Tim O'Donoghue   2:04:44.8  349 
9 Robert Coleman   El Paso, TX2:05:15.7 49863  356 
10 Larry Gilbert   2:15:10.7  316 

Men - Singlespeed

 Place Points NameCity, StateTime USAC #BibTeam
1 David Wilson   El Paso, TX2:32:29.7 38515  327 
2 Mark Wald-Hopkins   Los Alamos, NM2:37:58.5 109626  425 
3 Aaron Johnson   Dixon, NM2:45:18.9 263186  341 
4 Chris Hereford   Albuquerque, NM2:53:55.4 15911  436 
5 Leonard Goodell   Albuquerque, NM2:59:01.9 221660  352 
6 Mark Steven Gee   3:04:15.8  381 
7 Christopher Margeson   3:07:25.4  312 
8 Raymond Padilla   3:12:08.7  429 
9 Graeme Hunt   3:17:58.8  309 
10 Herman David Lapp   3:39:36.5  310 
DNF Matt Teller     307 

Men - PR/SM

 Place Points NameCity, StateTime USAC #BibTeam
1 Michael McCalla   Santa Fe, NM2:19:45.5 23198  383 
2 Tim Allen (1 - PR)   Golden, CO2:23:09.2 161831  421 
3 Eric Neat   2:26:13.5  408 
4 John Sawasky   Flagstaff, AZ2:26:42.8 80638  409 

Men - EX - Junior - 1-18

 Place Points NameCity, StateTime USAC #BibTeam
1 Justin Rose   2:51:19.4  410 
2 Austin Rose   Las Cruces, NM3:11:11.9 226554  416 

Men - EX - Senior - 19-29

 Place Points NameCity, StateTime USAC #BibTeam
1 Parmenides Orpinel   Los Lunas, NM2:36:38.7 264696  415 
2 Sem Gallegos   El Paso, TX2:37:23.9 233198  366 
3 Jay English   Albuquerque, NM2:41:42.8 246241  345 
4 Nicholas Martinez   Albuquerque, NM2:43:52.0 210302  432 
DNF G Adam Stepanovic   Santa Cruz, CA 41895  395 

Men - EX - Master - 30-39

 Place Points NameCity, StateTime USAC #BibTeam
1 Jason Quenzler   Durango, CO2:27:39.2 82358  357 
2 Jens Nielsen   Durango, CO2:32:23.4 144898  325 
3 Scott Romero   Salt Lake City, UT2:34:10.8 48213  437 
4 Andy Stravers   Gallup, NM2:46:47.9 251819  401 
DNF Keith Ashmore   Durango, CO1:46:38.9 75512  441 

Men - EX - Master - 40-49

 Place Points NameCity, StateTime USAC #BibTeam
1 Peter Tempest   Gallup, NM2:35:43.8 102793  347 
2 Marcus Leibrecht   2:37:56.3  403 
3 Rich Walters   Albuquerque, NM2:41:00.1 95845  364 
4 Michael Mangan   Albuquerque, NM2:48:20.5 223915  365 
5 Gregory Kaufman   Rio Rancho, NM2:55:37.0 45525  443 
6 William Rucker   Las Cruces, NM3:43:01.5 30798  330 
DNF Brian Hughes   Albuquerque, NM 243015  335 

Men - EX - Master - 50-99

 Place Points NameCity, StateTime USAC #BibTeam
1 Bill Blankenship   Santa Fe, NM3:04:40.1 3897  336 
2 Harold Field   3:08:29.1  317 
3 Clifford Loucks   Albuquerque, NM3:23:03.7 55725  374 

Men - BG - Junior - 1-18

 Place Points NameCity, StateTime USAC #BibTeam
1 Ayden Hibner-Hereford   Albuquerque, NM0:41:18.9 252570  434 
2 Tyler Martinez   0:45:12.7  333 
3 Benjamin Bw Rutherford   0:52:11.1  332 
4 Peter Keller   0:59:16.1  448 

Men - BG - Senior - 19-29

 Place Points NameCity, StateTime USAC #BibTeam
1 Sean Ottmer   0:37:52.9  384 

Men - BG - Master - 30-39

 Place Points NameCity, StateTime USAC #BibTeam
1 Raymond P Maestas   0:38:29.8  388 
2 Paul Mauermann   0:41:09.6  329 
3 Kelvin Akeson   0:45:09.5  389 
4 Eric Myers   0:48:33.2  320 
5 Amit Rajparia   0:50:05.9  438 
6 Aaron B Benally   0:58:49.3  379 

Men - BG - Master - 40-49

 Place Points NameCity, StateTime USAC #BibTeam
1 Tim Keller   0:32:58.1  447 
2 Paul Gagnier   Las Cruces, NM0:32:59.8 236793  369 
3 Anthony Lopez   0:37:03.2  440 
4 Michael McGrath   0:38:42.2  331 
5 Fred Shelley   0:45:20.0  328 
6 Charlie H Rothell   1:14:15.1  396 

Men - BG - Master - 50-99

 Place Points NameCity, StateTime USAC #BibTeam
1 Stuart Penner   Rio Rancho, NM0:38:41.1 261999  318 
2 Hal Bean   Las Cruces, NM0:44:03.7 247461  319 
3 John Hocker   0:45:30.8  367 

Women - SP

 Place Points NameCity, StateTime USAC #BibTeam
1 Kristin Edwards   1:46:05.9  451 
2 Cristina Olds   1:51:43.4  306 
3 Jodi Lynn Medell   1:53:45.6  363 
4 Helen Morell   1:55:24.6  355 
5 Natalie Dawson   1:55:30.0  449 
6 Kathy Blackshear   1:55:46.0  439 
7 Tracy Crane   1:57:51.0  378 
8 Angie Cline   2:05:36.9  354 
9 Emily Metzloff   2:16:26.9  353 
10 Roxanne Marianito   2:20:50.4  339 
11 Stacey Hollebeek   2:27:33.5  386 
12 Elfreida L. Barton   3:02:55.0  376 

Women - EX

 Place Points NameCity, StateTime USAC #BibTeam
1 Ani Hagan   El Paso, TX3:12:54.7 224335  390 
2 Deborah Werenko   Santa Fe, NM3:32:13.5 37734  427 

Women - BG

 Place Points NameCity, StateTime USAC #BibTeam
1 Cheryl Holloway-Gee   Santa Fe, NM0:39:23.3 269464  380 
2 Anne Marie Peck   0:39:30.6  324 
3 Anais Spitzer   0:39:39.9  337 
4 Nicole Marie Milligan   0:41:22.5  418 
5 Colleen Childs   0:44:53.7  385 
6 Janelle Vestal   0:46:18.2  362 
7 Ginny Devries   0:46:44.8  303 
8 Natali Myers   0:49:10.7  321 
9 Jessica Lea Baglione   0:53:46.0  311 
10 Heather Willis   0:54:49.5  444 
11 Michelle Lara   Albuquerque, NM0:56:51.0 269705  433 
12 Jennifer Gagnier   1:05:49.5  368 
13 Janice Spiros   1:09:56.7  419 
14 Brandi Hibner   1:18:24.2  431 
DNS Deann Payne     404 

Women - Pro

 Place Points NameCity, StateTime USAC #BibTeam
1 Jennifer Tribe Wilson   2:44:04.3  326 
2 Jennifer Sica   Flagstaff, AZ3:07:38.9 172806  387 

Report missing or incorrect license numbers

Volkswagen
ShimanoSierra NevadaCUORESpyBonk BreakerOSMOUSACDF
UCI USA Cycling is the official governing body for all disciplines of competitive cycling in the United States. The 501c3, membership-based organization aims both to achieve sustained success in international cycling competition and to grow competitive cycling in America while delivering an exceptional customer experience.
View Children's Online Privacy Protection Policy
US Olympic Committee